DAL2816 KORD-KBOS

Flight info

Callsign DAL2816
Flight time N/A
Altitude 35000
Route EBAKE WISMO POSTS PADDE SVM DKK PONCT JFUND2
Aircraft B752/M-SDE2E3FGHIJ3J4J7RWXY/LB1

Departure

Time 2026-05-03 22:01
Airport Chicago O'Hare International Airport (KORD)

Arrival

Time N/A
Airport Boston Logan International Airport (KBOS)
Time Latitude Longitude Altitude Speed Heading
2026-05-03 21:25 41.97665 -87.89274 677 ft 0 kts 60°
2026-05-03 21:49 41.97659 -87.89290 676 ft 2 kts 60°
2026-05-03 21:49 41.97652 -87.89307 676 ft 2 kts 60°
2026-05-03 21:49 41.97644 -87.89325 676 ft 2 kts 60°
2026-05-03 21:49 41.97639 -87.89344 676 ft 2 kts 95°
2026-05-03 21:50 41.97644 -87.89362 676 ft 2 kts 128°
2026-05-03 21:50 41.97656 -87.89374 676 ft 2 kts 162°
2026-05-03 21:50 41.97664 -87.89376 676 ft 1 kts 182°
2026-05-03 21:50 41.97669 -87.89376 676 ft 0 kts 180°
2026-05-03 21:54 41.97653 -87.89376 676 ft 5 kts 180°
2026-05-03 21:54 41.97611 -87.89375 676 ft 3 kts 169°
2026-05-03 21:54 41.97571 -87.89348 676 ft 7 kts 152°
2026-05-03 21:54 41.97524 -87.89335 676 ft 6 kts 179°
2026-05-03 21:55 41.97478 -87.89335 676 ft 6 kts 180°
2026-05-03 21:55 41.97434 -87.89335 676 ft 6 kts 180°
2026-05-03 21:55 41.97389 -87.89336 676 ft 6 kts 181°
2026-05-03 21:55 41.97346 -87.89336 676 ft 6 kts 179°
2026-05-03 21:56 41.97303 -87.89335 676 ft 6 kts 180°
2026-05-03 21:56 41.97276 -87.89317 676 ft 7 kts 118°
2026-05-03 21:56 41.97274 -87.89239 676 ft 8 kts 92°
2026-05-03 21:56 41.97271 -87.89156 676 ft 9 kts 94°
2026-05-03 21:57 41.97266 -87.89072 676 ft 8 kts 95°
2026-05-03 21:57 41.97264 -87.88996 676 ft 8 kts 89°
2026-05-03 21:57 41.97265 -87.88921 676 ft 7 kts 88°
2026-05-03 21:57 41.97266 -87.88850 676 ft 7 kts 89°
2026-05-03 21:58 41.97266 -87.88777 676 ft 8 kts 90°
2026-05-03 21:58 41.97265 -87.88698 676 ft 8 kts 92°
2026-05-03 21:58 41.97266 -87.88623 676 ft 8 kts 88°
2026-05-03 21:58 41.97268 -87.88548 676 ft 7 kts 89°
2026-05-03 21:59 41.97268 -87.88475 676 ft 7 kts 90°
2026-05-03 21:59 41.97267 -87.88407 676 ft 6 kts 99°
2026-05-03 21:59 41.97257 -87.88334 676 ft 13 kts 103°
2026-05-03 21:59 41.97187 -87.88267 676 ft 8 kts 152°
2026-05-03 22:00 41.97172 -87.88174 676 ft 15 kts 90°
2026-05-03 22:00 41.97158 -87.88052 676 ft 11 kts 139°
2026-05-03 22:00 41.97055 -87.88039 676 ft 19 kts 182°
2026-05-03 22:00 41.96930 -87.88049 676 ft 17 kts 211°
2026-05-03 22:01 41.96755 -87.88254 677 ft 61 kts 221°
2026-05-03 22:01 41.96285 -87.88802 678 ft 116 kts 225°
2026-05-03 22:01 41.95545 -87.89694 1028 ft 160 kts 221°
2026-05-03 22:01 41.94758 -87.90639 2113 ft 149 kts 221°
2026-05-03 22:02 41.93985 -87.91524 2435 ft 155 kts 222°
2026-05-03 22:02 41.93107 -87.92535 2680 ft 175 kts 222°
2026-05-03 22:02 41.91987 -87.93340 2995 ft 200 kts 194°
2026-05-03 22:02 41.90487 -87.93077 3245 ft 239 kts 160°
2026-05-03 22:03 41.89139 -87.91561 3658 ft 271 kts 129°
2026-05-03 22:03 41.88437 -87.89150 4229 ft 293 kts 98°
2026-05-03 22:03 41.88651 -87.86406 4993 ft 301 kts 69°
2026-05-03 22:03 41.89737 -87.84025 5751 ft 302 kts 46°
2026-05-03 22:04 41.91000 -87.81802 6584 ft 305 kts 56°
2026-05-03 22:04 41.91989 -87.79258 7478 ft 304 kts 63°
2026-05-03 22:04 41.92814 -87.76675 8404 ft 302 kts 65°
2026-05-03 22:04 41.93558 -87.74054 9236 ft 303 kts 67°
2026-05-03 22:05 41.94246 -87.71435 10139 ft 301 kts 68°
2026-05-03 22:05 41.94937 -87.68706 10575 ft 318 kts 68°
2026-05-03 22:05 41.95655 -87.65784 10877 ft 339 kts 69°
2026-05-03 22:05 41.96393 -87.62728 11189 ft 358 kts 69°
2026-05-03 22:06 41.97168 -87.59483 11748 ft 369 kts 69°
2026-05-03 22:06 41.97949 -87.56192 12487 ft 374 kts 69°
2026-05-03 22:06 41.98738 -87.52862 13290 ft 378 kts 69°
2026-05-03 22:06 41.99536 -87.49486 13988 ft 383 kts 69°
2026-05-03 22:07 42.00346 -87.46056 14749 ft 386 kts 69°
2026-05-03 22:07 42.01158 -87.42611 15376 ft 391 kts 69°
2026-05-03 22:07 42.01975 -87.39140 16048 ft 393 kts 69°
2026-05-03 22:07 42.02810 -87.35585 16668 ft 398 kts 69°
2026-05-03 22:08 42.03643 -87.32034 17311 ft 401 kts 70°
2026-05-03 22:08 42.04488 -87.28422 17892 ft 404 kts 70°
2026-05-03 22:08 42.05330 -87.24820 18477 ft 408 kts 70°
2026-05-03 22:08 42.06181 -87.21174 19067 ft 411 kts 69°
2026-05-03 22:09 42.07037 -87.17502 19636 ft 415 kts 69°
2026-05-03 22:09 42.07905 -87.13769 20181 ft 418 kts 70°
2026-05-03 22:09 42.08767 -87.10058 20713 ft 422 kts 69°
2026-05-03 22:10 42.10537 -87.02416 21731 ft 429 kts 69°
2026-05-03 22:10 42.11436 -86.98525 22229 ft 434 kts 69°
2026-05-03 22:10 42.12329 -86.94655 22732 ft 437 kts 69°
2026-05-03 22:10 42.13232 -86.90728 23274 ft 439 kts 69°
2026-05-03 22:11 42.14144 -86.86764 23668 ft 444 kts 69°
2026-05-03 22:11 42.15055 -86.82792 24196 ft 446 kts 69°
2026-05-03 22:11 42.15965 -86.78816 24630 ft 450 kts 69°
2026-05-03 22:11 42.16890 -86.74770 25078 ft 452 kts 69°
2026-05-03 22:12 42.17812 -86.70733 25482 ft 456 kts 69°
2026-05-03 22:12 42.18743 -86.66641 25931 ft 458 kts 69°
2026-05-03 22:12 42.19687 -86.62492 26313 ft 462 kts 69°
2026-05-03 22:12 42.20610 -86.58419 26766 ft 463 kts 69°
2026-05-03 22:13 42.21559 -86.54233 27118 ft 467 kts 69°
2026-05-03 22:13 42.22507 -86.50039 27541 ft 469 kts 69°
2026-05-03 22:13 42.23460 -86.45812 27899 ft 472 kts 69°
2026-05-03 22:13 42.24422 -86.41543 28287 ft 474 kts 69°
2026-05-03 22:14 42.25386 -86.37255 28696 ft 476 kts 69°
2026-05-03 22:14 42.26342 -86.32991 29006 ft 479 kts 69°
2026-05-03 22:14 42.27312 -86.28659 29353 ft 481 kts 69°
2026-05-03 22:14 42.28279 -86.24328 29702 ft 483 kts 69°
2026-05-03 22:15 42.29257 -86.19945 30031 ft 486 kts 69°
2026-05-03 22:15 42.30232 -86.15562 30316 ft 489 kts 69°
2026-05-03 22:15 42.31051 -86.11066 30664 ft 494 kts 77°
2026-05-03 22:15 42.31371 -86.06434 30971 ft 500 kts 86°
2026-05-03 22:16 42.31385 -86.01745 31180 ft 504 kts 87°
2026-05-03 22:16 42.31373 -85.97034 31486 ft 504 kts 88°
2026-05-03 22:16 42.31318 -85.89437 32013 ft 504 kts 88°
2026-05-03 22:16 42.31235 -85.81412 32466 ft 505 kts 88°
2026-05-03 22:17 42.31131 -85.72859 32987 ft 505 kts 88°
2026-05-03 22:17 42.31014 -85.64211 33536 ft 505 kts 88°
2026-05-03 22:17 42.30897 -85.56044 33970 ft 504 kts 88°
2026-05-03 22:17 42.30772 -85.47677 34356 ft 504 kts 88°
2026-05-03 22:18 42.30631 -85.38825 34720 ft 504 kts 88°
2026-05-03 22:18 42.30494 -85.30567 34879 ft 503 kts 88°
2026-05-03 22:18 42.30377 -85.23776 34892 ft 505 kts 88°
2026-05-03 22:19 42.30100 -85.08584 34883 ft 503 kts 89°
2026-05-03 22:19 42.29743 -84.92361 34882 ft 504 kts 89°
2026-05-03 22:20 42.29331 -84.75593 34888 ft 506 kts 89°
2026-05-03 22:20 42.28866 -84.57825 34886 ft 504 kts 89°
2026-05-03 22:21 42.29635 -84.40466 34909 ft 498 kts 75°
2026-05-03 22:21 42.31940 -84.23966 34883 ft 497 kts 75°
2026-05-03 22:22 42.34253 -84.07476 34874 ft 497 kts 75°
2026-05-03 22:22 42.36550 -83.90960 34883 ft 496 kts 75°
2026-05-03 22:23 42.38733 -83.75087 34886 ft 497 kts 75°
2026-05-03 22:23 42.40720 -83.60126 34886 ft 499 kts 80°
2026-05-03 22:24 42.41378 -83.45213 34891 ft 501 kts 83°
2026-05-03 22:24 42.41931 -83.30123 34884 ft 500 kts 84°
2026-05-03 22:25 42.42503 -83.13586 34883 ft 500 kts 84°
2026-05-03 22:25 42.43096 -82.95600 34881 ft 500 kts 84°
2026-05-03 22:26 42.43667 -82.77421 34884 ft 501 kts 84°
2026-05-03 22:26 42.44217 -82.58938 34883 ft 500 kts 84°
2026-05-03 22:27 42.44673 -82.42816 34879 ft 501 kts 84°
2026-05-03 22:27 42.45133 -82.25687 34868 ft 501 kts 85°
2026-05-03 22:28 42.45568 -82.08510 34874 ft 500 kts 85°
2026-05-03 22:28 42.45991 -81.90769 34876 ft 500 kts 85°
2026-05-03 22:29 42.46392 -81.72729 34867 ft 500 kts 85°
2026-05-03 22:29 42.46773 -81.54243 34879 ft 499 kts 85°
2026-05-03 22:30 42.47127 -81.35679 34892 ft 500 kts 85°
2026-05-03 22:30 42.47416 -81.19235 34882 ft 500 kts 86°
2026-05-03 22:31 42.47713 -81.00640 34884 ft 500 kts 86°
2026-05-03 22:31 42.47976 -80.82413 34886 ft 501 kts 86°
2026-05-03 22:32 42.48214 -80.63857 34890 ft 500 kts 86°
2026-05-03 22:32 42.48420 -80.45376 34890 ft 500 kts 86°
2026-05-03 22:33 42.48595 -80.27174 34900 ft 501 kts 87°
2026-05-03 22:33 42.48737 -80.09506 34889 ft 502 kts 87°
2026-05-03 22:34 42.48857 -79.90801 34890 ft 503 kts 87°
2026-05-03 22:34 42.48947 -79.72347 34894 ft 502 kts 87°
2026-05-03 22:35 42.49006 -79.54131 34897 ft 502 kts 87°
2026-05-03 22:35 42.49036 -79.36282 34908 ft 501 kts 87°
2026-05-03 22:36 42.49485 -79.20394 34897 ft 499 kts 81°
2026-05-03 22:36 42.50755 -79.02825 34891 ft 501 kts 82°
2026-05-03 22:37 42.51959 -78.85216 34891 ft 500 kts 82°
2026-05-03 22:37 42.53110 -78.67912 34892 ft 500 kts 82°
2026-05-03 22:38 42.54193 -78.51245 34885 ft 499 kts 82°
2026-05-03 22:38 42.55272 -78.34257 34885 ft 500 kts 83°
2026-05-03 22:39 42.56087 -78.21159 34881 ft 501 kts 83°
2026-05-03 22:39 42.56663 -78.11739 34880 ft 500 kts 83°
2026-05-03 22:40 42.57230 -78.02343 34880 ft 501 kts 83°
2026-05-03 22:40 42.57793 -77.92886 34883 ft 501 kts 83°
2026-05-03 22:41 42.58343 -77.83507 34883 ft 499 kts 83°
2026-05-03 22:41 42.58893 -77.74010 34900 ft 500 kts 83°
2026-05-03 22:42 42.59430 -77.64596 34910 ft 501 kts 83°
2026-05-03 22:42 42.59958 -77.55210 34901 ft 500 kts 83°
2026-05-03 22:43 42.60479 -77.45785 34900 ft 502 kts 83°
2026-05-03 22:43 42.60994 -77.36339 34896 ft 499 kts 83°
2026-05-03 22:44 42.61505 -77.26849 34890 ft 500 kts 84°
2026-05-03 22:44 42.62005 -77.17377 34896 ft 501 kts 84°
2026-05-03 22:45 42.62498 -77.07906 34894 ft 501 kts 84°
2026-05-03 22:45 42.62981 -76.98472 34900 ft 502 kts 84°
2026-05-03 22:46 42.63458 -76.89014 34891 ft 501 kts 84°
2026-05-03 22:46 42.63929 -76.79499 34888 ft 501 kts 84°
2026-05-03 22:47 42.64389 -76.70074 34893 ft 501 kts 84°
2026-05-03 22:47 42.64843 -76.60590 34903 ft 501 kts 84°
2026-05-03 22:48 42.65286 -76.51176 34903 ft 500 kts 84°
2026-05-03 22:48 42.65722 -76.41755 34907 ft 500 kts 84°
2026-05-03 22:49 42.66153 -76.32277 34897 ft 501 kts 85°
2026-05-03 22:49 42.66573 -76.22831 34889 ft 500 kts 85°
2026-05-03 22:50 42.66985 -76.13446 34882 ft 500 kts 85°
2026-05-03 22:50 42.67390 -76.04005 34882 ft 501 kts 85°
2026-05-03 22:51 42.67789 -75.94524 34879 ft 500 kts 85°
2026-05-03 22:51 42.68176 -75.85139 34888 ft 500 kts 85°
2026-05-03 22:52 42.68560 -75.75668 34885 ft 500 kts 85°
2026-05-03 22:52 42.68934 -75.66202 34885 ft 500 kts 85°
2026-05-03 22:53 42.69300 -75.56787 34902 ft 501 kts 85°
2026-05-03 22:53 42.69660 -75.47317 34898 ft 500 kts 85°
2026-05-03 22:54 42.70010 -75.37873 34892 ft 501 kts 85°
2026-05-03 22:54 42.70354 -75.28416 34879 ft 501 kts 86°
2026-05-03 22:55 42.70691 -75.18933 34876 ft 501 kts 86°
2026-05-03 22:55 42.71019 -75.09462 34883 ft 501 kts 86°
2026-05-03 22:56 42.71338 -75.00024 34882 ft 501 kts 86°
2026-05-03 22:56 42.71650 -74.90590 34877 ft 501 kts 86°
2026-05-03 22:57 42.71955 -74.81098 34876 ft 501 kts 86°
2026-05-03 22:57 42.72253 -74.71609 34864 ft 501 kts 86°
2026-05-03 22:58 42.72543 -74.62109 34875 ft 502 kts 86°
2026-05-03 22:58 42.72824 -74.52660 34880 ft 502 kts 86°
2026-05-03 22:59 42.73098 -74.43147 34869 ft 501 kts 86°
2026-05-03 22:59 42.73367 -74.33574 34864 ft 500 kts 87°
2026-05-03 23:00 42.73620 -74.24309 34867 ft 502 kts 87°
2026-05-03 23:00 42.73872 -74.14748 34876 ft 502 kts 87°
2026-05-03 23:01 42.74115 -74.05244 34882 ft 502 kts 87°
2026-05-03 23:01 42.74350 -73.95755 34881 ft 501 kts 87°
2026-05-03 23:02 42.74577 -73.86232 34884 ft 502 kts 87°
2026-05-03 23:02 42.74800 -73.76672 34886 ft 502 kts 87°
2026-05-03 23:03 42.75021 -73.67184 34880 ft 501 kts 87°
2026-05-03 23:03 42.75240 -73.57735 34876 ft 502 kts 87°
2026-05-03 23:04 42.75462 -73.48214 34870 ft 502 kts 87°
2026-05-03 23:04 42.75684 -73.38692 34871 ft 503 kts 87°
2026-05-03 23:05 42.75906 -73.29127 34863 ft 502 kts 88°
2026-05-03 23:05 42.76119 -73.19938 34860 ft 502 kts 88°
2026-05-03 23:06 42.76343 -73.10456 34863 ft 502 kts 86°
2026-05-03 23:06 42.76158 -73.01153 34635 ft 476 kts 101°
2026-05-03 23:06 42.75400 -72.96859 33883 ft 468 kts 109°
2026-05-03 23:07 42.74248 -72.92658 32840 ft 471 kts 110°
2026-05-03 23:07 42.73206 -72.88459 31945 ft 471 kts 106°
2026-05-03 23:07 42.72313 -72.84240 31021 ft 470 kts 104°
2026-05-03 23:07 42.71479 -72.79967 29847 ft 467 kts 103°
2026-05-03 23:08 42.70696 -72.75748 28390 ft 466 kts 102°
2026-05-03 23:08 42.69929 -72.71503 27279 ft 457 kts 101°
2026-05-03 23:08 42.69192 -72.67348 26028 ft 451 kts 101°
2026-05-03 23:08 42.68475 -72.63254 24886 ft 442 kts 100°
2026-05-03 23:09 42.67926 -72.59215 24059 ft 423 kts 95°
2026-05-03 23:09 42.67475 -72.55311 23610 ft 416 kts 95°
2026-05-03 23:09 42.67010 -72.51422 23181 ft 423 kts 96°
2026-05-03 23:09 42.66533 -72.47464 22729 ft 429 kts 96°
2026-05-03 23:10 42.66042 -72.43446 22297 ft 428 kts 96°
2026-05-03 23:10 42.65552 -72.39448 21809 ft 424 kts 96°
2026-05-03 23:10 42.65073 -72.35548 21426 ft 420 kts 96°
2026-05-03 23:10 42.64617 -72.31847 20997 ft 420 kts 97°
2026-05-03 23:11 42.64164 -72.27949 20424 ft 413 kts 96°
2026-05-03 23:11 42.63724 -72.24155 19919 ft 405 kts 96°
2026-05-03 23:11 42.63287 -72.20397 19427 ft 402 kts 96°
2026-05-03 23:11 42.62853 -72.16662 18954 ft 399 kts 96°
2026-05-03 23:12 42.62416 -72.12929 18489 ft 396 kts 96°
2026-05-03 23:12 42.61980 -72.09201 18097 ft 405 kts 96°
2026-05-03 23:12 42.61532 -72.05396 17477 ft 406 kts 96°
2026-05-03 23:12 42.61077 -72.01652 17099 ft 399 kts 97°
2026-05-03 23:13 42.60619 -71.97958 16571 ft 396 kts 97°
2026-05-03 23:13 42.60163 -71.94286 16068 ft 391 kts 97°
2026-05-03 23:13 42.59709 -71.90631 15628 ft 386 kts 96°
2026-05-03 23:13 42.59265 -71.87071 15307 ft 377 kts 96°
2026-05-03 23:14 42.58828 -71.83573 14726 ft 378 kts 96°
2026-05-03 23:14 42.58333 -71.80035 14183 ft 377 kts 99°
2026-05-03 23:14 42.57781 -71.76604 13856 ft 370 kts 98°
2026-05-03 23:14 42.57239 -71.73166 13540 ft 365 kts 99°
2026-05-03 23:15 42.56706 -71.69794 13237 ft 366 kts 98°
2026-05-03 23:15 42.56174 -71.66428 12849 ft 370 kts 99°
2026-05-03 23:15 42.55621 -71.62946 12339 ft 369 kts 99°
2026-05-03 23:15 42.55092 -71.59635 12154 ft 359 kts 99°
2026-05-03 23:16 42.54444 -71.56333 11654 ft 359 kts 103°
2026-05-03 23:16 42.53762 -71.53089 11256 ft 355 kts 103°
2026-05-03 23:16 42.53097 -71.49886 10880 ft 350 kts 102°
2026-05-03 23:16 42.52438 -71.46719 10541 ft 345 kts 102°
2026-05-03 23:17 42.51785 -71.43581 10282 ft 338 kts 102°
2026-05-03 23:17 42.51152 -71.40548 10211 ft 327 kts 102°
2026-05-03 23:17 42.50547 -71.37650 10135 ft 315 kts 102°
2026-05-03 23:17 42.49994 -71.34920 9622 ft 319 kts 102°
2026-05-03 23:18 42.49414 -71.31999 9324 ft 315 kts 102°
2026-05-03 23:18 42.48839 -71.29123 9026 ft 311 kts 102°
2026-05-03 23:18 42.48276 -71.26302 8762 ft 306 kts 102°
2026-05-03 23:18 42.47726 -71.23563 8519 ft 301 kts 102°
2026-05-03 23:19 42.47182 -71.20845 8211 ft 299 kts 102°
2026-05-03 23:19 42.46639 -71.18141 7920 ft 297 kts 102°
2026-05-03 23:19 42.46132 -71.15433 7624 ft 294 kts 96°
2026-05-03 23:19 42.45941 -71.13615 7455 ft 290 kts 92°